Wind_Speed
19 20 21 23 25 27 28 28 26 24 22 19 18 17 16 15 14 13 11 9 8 7 7 7 7 7 7 8 8 9 10 11 12 13 14 15 16 16 17 18 18 18 19 19 20 20 20 20 21 21 22 23 23 24 24 24 24 24 24 24 24 24 24 24 24 24 24 25 25
20 21 22 24 26 27 28 28 26 23 20 18 16 16 15 14 13 12 10 9 8 8 7 7 7 7 8 8 9 10 11 12 13 14 15 15 16 17 17 18 18 19 19 20 20 20 20 21 21 22 22 23 24 24 24 24 24 24 23 23 23 23 23 24 24 24 25 25 25
21 22 24 25 27 28 28 27 25 22 19 17 16 16 15 14 13 11 10 9 8 8 8 7 8 8 8 9 10 11 12 13 14 15 15 16 16 17 17 18 19 19 20 20 20 21 21 21 22 22 23 23 24 24 24 24 23 23 23 23 23 23 23 24 24 25 25 26 26
21 23 25 27 28 28 28 26 23 21 19 17 17 16 15 14 12 11 10 9 9 8 8 8 8 9 9 10 11 12 13 13 14 15 16 16 17 17 18 18 19 20 20 21 21 21 22 22 22 23 23 24 24 23 23 23 22 22 22 23 23 23 24 24 25 25 26 26 26
22 24 26 27 28 28 26 24 22 20 18 17 16 15 15 13 12 11 10 9 9 9 9 9 9 9 10 11 12 12 13 14 15 16 16 16 17 17 18 19 19 20 21 21 21 22 22 22 23 23 23 23 23 23 23 22 22 22 22 23 23 24 24 25 26 26 27 27 27
24 25 27 28 28 27 25 23 21 19 17 16 16 15 14 13 12 11 10 10 9 9 9 9 10 10 11 12 12 13 14 15 16 16 16 17 17 18 18 19 20 20 21 21 22 22 22 23 23 23 23 23 23 22 22 22 22 22 22 23 24 24 25 26 26 27 27 28 28
25 26 28 28 27 26 24 22 20 18 17 16 15 14 13 13 12 11 11 10 10 10 10 10 10 11 12 13 13 14 15 16 16 16 17 17 17 18 19 19 20 21 21 21 22 22 23 23 23 23 23 22 22 22 22 22 22 23 23 24 24 25 26 27 27 28 28 29 29
25 27 27 27 26 24 23 21 19 18 16 15 15 14 13 13 12 11 11 11 11 11 11 11 11 12 13 13 14 15 16 16 17 17 17 17 18 18 19 20 20 21 21 22 22 22 23 23 23 23 22 22 22 22 22 22 23 23 24 25 25 26 27 27 28 29 29 29 29
26 26 26 25 24 23 22 20 19 17 16 15 15 14 14 13 12 12 12 11 11 11 11 11 12 13 13 14 15 16 17 17 17 17 18 18 18 18 19 20 20 21 22 22 22 22 23 23 23 22 22 22 22 22 22 23 24 24 25 26 27 27 28 28 29 29 30 30 30
26 26 25 24 23 22 21 20 18 17 16 15 15 14 14 13 13 12 12 12 12 12 12 12 13 13 14 15 16 17 17 17 17 17 18 18 18 19 19 20 20 21 22 22 23 22 22 22 22 22 22 22 22 22 23 24 24 25 26 27 28 28 29 29 29 30 30 31 30
24 24 24 23 23 22 21 20 18 17 16 16 15 15 14 13 13 13 13 12 12 12 12 13 13 14 15 16 17 17 17 17 17 18 18 18 19 19 20 20 21 21 22 22 22 22 22 22 21 21 21 22 22 23 24 25 25 26 27 28 29 29 30 30 30 31 31 31 31
23 23 23 23 22 21 20 19 18 17 17 16 15 15 14 14 13 13 13 13 12 13 13 14 14 15 16 17 17 18 18 18 18 18 18 19 19 20 20 21 21 22 22 22 22 22 22 22 21 21 21 22 23 24 25 26 27 27 28 29 30 30 30 31 31 31 31 32 31
22 22 22 22 22 21 20 19 18 17 17 16 15 15 14 14 14 13 13 13 13 13 14 15 15 16 17 17 18 18 18 18 18 18 19 19 19 20 20 21 21 22 22 22 22 22 22 22 22 22 22 23 24 25 26 27 28 28 29 30 30 31 31 31 32 32 32 32 31
22 22 21 21 21 20 19 18 18 17 17 16 15 15 14 14 14 13 13 13 13 14 15 15 16 17 17 17 18 18 18 18 18 19 19 19 20 20 21 21 21 21 22 21 22 21 22 22 22 23 23 24 25 26 27 27 28 29 30 30 31 31 32 32 32 32 32 32 32
21 21 21 20 20 19 19 18 17 17 16 16 15 15 14 14 14 14 13 13 14 15 15 16 17 17 17 17 17 18 18 19 19 19 19 20 20 21 21 21 21 21 21 21 21 21 22 22 23 24 25 25 26 27 27 28 29 30 31 31 32 32 32 32 32 32 32 32 32
21 21 20 20 19 19 18 17 17 16 16 15 15 15 14 14 14 14 14 14 14 15 16 16 17 17 17 17 18 18 18 19 19 19 20 20 20 21 21 21 21 21 21 21 21 21 22 23 24 25 26 26 27 28 28 29 30 30 31 32 32 32 32 33 32 32 32 32 32
21 20 20 19 19 18 17 17 16 16 16 15 15 15 14 14 14 14 14 14 15 15 16 17 17 17 17 17 18 18 19 19 19 20 20 20 21 21 21 21 21 21 21 21 21 22 23 24 25 26 26 27 28 29 29 30 30 31 32 32 32 33 33 33 32 32 32 32 32
20 20 19 19 18 17 17 16 16 16 15 15 15 14 14 14 14 14 14 15 15 16 16 17 17 17 17 17 18 18 19 19 19 20 20 20 21 21 21 21 21 21 21 21 22 23 23 24 25 26 27 28 28 29 30 30 31 32 32 32 33 33 33 33 32 32 32 32 32
20 19 19 18 18 17 16 16 16 15 15 15 14 14 14 14 14 14 14 15 16 16 16 17 17 17 17 17 18 18 19 19 19 20 20 20 20 20 20 20 20 21 21 22 23 23 24 25 26 27 28 28 29 30 30 31 32 32 32 33 33 33 33 32 32 32 31 31 31
19 19 18 18 17 17 16 16 15 15 15 14 14 14 14 14 14 14 15 15 16 16 16 16 16 16 17 17 18 18 19 19 19 20 20 20 20 20 20 20 21 21 22 23 23 24 25 26 27 28 28 29 30 31 31 32 32 32 33 33 33 33 33 32 32 31 31 31 30
18 18 18 17 17 16 16 16 15 15 14 14 14 14 14 14 14 14 15 15 16 16 16 16 16 16 16 17 17 18 18 19 19 19 20 20 20 20 21 21 21 22 22 23 24 25 26 27 28 28 29 30 31 32 32 32 33 33 33 33 33 33 33 32 32 31 31 30 29
18 18 17 17 17 16 16 15 15 14 14 14 14 14 14 14 14 14 15 15 15 15 15 15 15 16 16 17 17 18 18 19 19 19 19 20 20 21 21 21 22 23 23 24 25 26 26 27 28 29 30 31 32 32 32 33 33 33 33 33 33 33 32 32 31 31 30 29 28
17 17 17 17 16 16 16 15 15 14 14 14 14 14 14 14 14 15 15 15 15 15 15 15 15 16 16 17 17 18 18 18 19 19 19 20 20 21 21 22 23 23 24 25 26 26 27 28 29 30 31 31 32 32 33 33 33 33 33 33 33 33 33 32 31 31 30 29 27
17 17 17 17 16 16 15 15 14 14 14 14 14 14 14 14 14 14 14 14 14 14 14 15 15 16 16 17 17 18 18 18 18 19 19 20 20 21 22 23 23 24 25 26 26 27 28 29 29 30 31 31 32 32 32 32 32 33 33 33 33 33 33 32 31 31 30 28 26
17 17 16 16 16 15 15 14 14 14 14 14 14 13 13 13 13 14 14 14 13 14 14 15 15 16 16 17 18 18 18 18 18 19 19 20 21 22 22 23 24 25 26 26 27 27 28 28 29 30 31 31 31 32 32 32 32 32 32 32 33 33 33 33 32 31 29 27 25
17 16 16 16 15 15 14 14 14 14 14 14 13 13 13 13 13 13 13 13 13 14 14 15 15 16 16 17 18 18 18 18 19 19 20 20 21 22 23 24 25 26 26 27 27 28 28 29 29 30 30 31 31 31 31 31 31 31 32 32 32 33 33 33 32 31 29 26 24
16 16 16 15 15 14 14 14 14 14 14 13 12 12 12 12 12 12 12 13 13 14 15 15 15 16 16 17 17 18 18 19 19 20 20 21 22 23 24 25 25 26 27 27 28 28 28 29 29 30 30 30 30 30 30 30 31 31 31 32 32 32 32 32 31 30 28 26 23
16 15 15 15 15 14 14 14 14 13 13 12 11 11 11 11 11 12 12 13 14 14 14 15 15 16 16 17 17 18 18 19 20 20 21 22 23 23 24 25 26 27 27 28 28 28 29 29 30 30 30 29 29 29 29 29 30 30 31 31 31 31 31 31 30 29 27 24 22
15 15 15 15 15 15 14 14 13 12 12 11 10 10 10 11 11 12 12 13 13 14 14 14 15 16 16 17 17 18 19 20 20 21 22 22 23 24 25 26 27 27 28 28 28 29 29 30 30 30 30 29 28 28 28 29 29 30 30 30 30 30 30 30 29 27 25 23 21
15 15 15 15 15 14 14 13 12 11 10 10 9 9 10 10 11 12 13 13 13 13 14 15 15 16 16 17 18 18 19 20 21 22 22 23 24 25 26 26 27 28 28 28 29 29 30 30 30 30 29 28 27 27 28 28 29 29 29 29 29 29 29 29 27 25 23 22 21
15 15 15 14 14 13 12 12 11 10 9 9 9 9 10 11 12 12 12 12 13 13 14 15 16 16 16 17 18 18 19 20 21 22 23 24 25 25 26 27 28 28 29 29 29 30 30 30 30 30 29 28 27 27 27 28 28 28 28 28 28 28 28 27 26 24 22 21 21
15 14 14 14 13 12 11 10 9 9 8 8 9 10 10 11 12 12 12 12 13 14 15 15 16 16 16 17 18 19 20 21 22 23 24 25 25 26 27 27 28 29 29 29 30 30 30 30 30 30 29 28 27 27 27 27 27 27 27 26 27 27 27 26 24 23 21 21 21
14 14 13 13 12 11 10 9 8 8 8 8 9 10 11 11 12 12 12 12 13 14 15 15 16 16 17 18 18 19 20 21 22 23 24 25 26 27 27 28 28 29 29 30 30 30 30 30 30 29 28 27 27 27 27 27 26 26 26 26 26 27 26 25 23 22 21 21 21
14 13 12 11 10 9 8 8 8 8 8 9 10 10 11 11 11 11 12 13 13 14 15 15 16 17 17 18 19 20 21 22 23 24 25 26 27 27 27 28 29 29 29 30 30 30 30 30 30 29 28 28 27 27 27 26 25 25 25 25 26 26 25 24 22 21 21 21 21
13 12 11 10 9 8 7 7 7 7 8 9 10 10 10 10 11 11 12 13 13 14 15 16 16 17 18 18 19 20 22 23 24 25 26 26 27 27 28 28 29 29 29 30 30 30 30 30 30 29 28 28 27 26 26 25 25 25 25 25 26 26 25 23 22 22 22 22 22
12 11 10 9 8 7 7 7 7 8 8 9 9 10 10 10 11 11 12 13 13 14 15 16 16 17 18 19 20 21 22 24 25 25 26 27 27 28 28 28 29 29 29 30 30 30 30 30 30 29 28 27 26 25 25 24 24 24 25 25 26 25 25 24 23 22 22 22 22
11 10 9 8 7 6 6 6 7 8 8 9 9 10 10 10 11 12 12 13 14 14 15 16 17 18 18 19 21 22 23 24 25 26 27 27 28 28 29 29 29 29 29 30 30 30 30 30 29 28 27 26 25 24 24 23 24 24 24 25 26 25 25 24 24 23 22 22 23
10 9 8 7 6 6 6 6 7 7 8 8 9 9 10 11 11 12 13 13 14 15 16 16 17 18 19 20 21 22 24 25 26 26 27 27 28 28 29 29 29 30 30 30 30 30 30 30 29 27 26 25 24 23 23 23 23 24 24 25 26 26 25 24 24 23 22 22 24
9 8 7 6 5 5 6 6 6 7 7 8 9 9 10 11 11 12 13 14 14 15 16 17 18 19 20 21 22 23 24 24 25 26 27 27 28 28 29 29 30 30 30 30 30 30 30 29 28 26 25 23 22 22 22 23 23 24 24 25 26 26 25 24 23 22 22 24 26
7 6 6 5 5 5 5 6 6 6 7 8 9 9 10 11 12 13 13 14 15 16 16 18 19 20 21 22 23 23 24 24 25 26 26 27 27 28 29 29 30 30 30 30 30 30 30 29 27 25 23 21 21 21 21 22 23 24 24 25 26 26 26 24 23 22 24 27 30
6 5 5 5 5 5 5 5 6 7 7 8 9 10 10 11 12 13 14 14 15 16 17 18 19 21 22 23 23 24 24 24 25 25 26 27 27 28 28 29 30 30 30 30 30 30 29 28 26 24 22 20 20 20 21 21 23 24 24 25 25 26 25 25 24 26 28 31 33
Wind_Direction
190 193 196 197 197 196 195 194 195 196 197 198 198 199 200 202 205 209 213 219 225 235 245 255 265 275 282 286 290 293 297 299 301 304 306 308 311 313 315 317 318 319 319 319 319 319 319 319 320 321 321 322 323 324 324 324 325 325 325 324 325 324 324 324 323 323 322 321 321
190 192 195 196 195 194 193 193 194 195 196 197 199 201 204 206 209 213 218 223 230 240 250 260 269 275 280 284 288 291 294 297 299 302 305 307 310 312 314 316 317 317 318 318 318 318 318 319 320 321 322 322 323 323 324 324 324 324 324 324 324 324 324 323 322 322 321 321 321
189 192 194 194 194 193 193 193 194 195 196 198 201 204 207 209 213 217 222 228 236 245 253 262 269 275 279 283 286 290 292 295 298 301 304 307 309 311 313 314 315 316 316 317 317 317 318 319 320 321 322 322 323 323 323 323 324 324 324 324 323 323 323 322 322 321 321 321 321
190 191 193 194 193 193 194 195 196 198 200 202 205 208 210 213 217 221 226 233 239 247 255 262 269 273 277 282 285 288 290 293 296 300 303 306 308 310 311 313 314 315 315 316 316 317 318 319 320 321 322 322 323 323 323 323 324 324 324 323 323 323 322 322 322 321 321 321 321
190 191 193 193 193 194 196 198 200 203 206 209 212 214 216 218 221 225 230 235 241 248 256 263 268 273 277 281 284 287 290 293 296 299 302 305 307 308 310 312 313 314 314 315 316 317 318 319 320 321 322 322 323 323 323 323 323 323 323 323 323 323 322 322 321 321 321 321 321
189 191 192 194 194 196 199 202 205 209 213 216 219 221 222 223 225 227 231 236 243 250 257 263 268 272 277 280 284 287 290 293 295 298 301 303 305 307 309 310 312 313 314 314 315 317 318 319 320 321 321 322 322 322 322 323 323 323 323 323 322 322 322 322 321 321 321 320 320
190 191 193 194 196 199 203 206 210 214 218 221 223 225 226 226 227 229 233 240 247 253 258 262 267 272 277 281 285 288 291 293 295 297 299 302 304 306 308 309 311 312 313 314 315 316 318 318 320 320 321 322 322 322 322 323 323 323 323 323 323 322 322 321 321 320 320 319 319
191 192 194 196 200 204 208 212 215 217 220 223 224 225 226 227 229 232 237 243 248 253 258 263 268 273 278 282 285 288 290 292 294 296 298 301 303 305 307 309 310 311 313 314 315 316 317 318 319 320 321 321 322 322 322 322 323 323 323 323 323 322 322 321 320 319 318 318 317
192 194 196 200 204 208 212 215 217 219 221 224 225 225 226 228 230 234 239 244 249 255 260 265 270 275 280 283 285 287 289 291 293 296 298 300 302 304 306 308 310 311 312 314 315 316 317 318 319 320 321 321 322 322 322 322 323 323 323 323 323 322 321 320 319 318 317 316 316
194 196 199 203 207 210 213 214 216 219 222 224 226 226 227 229 232 235 240 246 252 258 263 267 272 277 280 283 285 287 288 291 293 295 297 299 302 304 306 307 309 311 312 314 315 316 317 318 319 320 321 321 322 322 322 323 323 323 323 323 322 322 321 319 318 317 316 315 315
197 200 203 207 209 211 212 213 215 218 221 225 226 227 228 229 232 237 242 249 254 260 265 270 275 278 281 283 285 286 288 290 293 295 297 299 301 304 306 308 310 311 313 314 315 316 317 318 319 320 321 322 322 323 323 323 323 323 323 322 322 321 319 318 317 316 315 315 315
202 205 207 209 210 210 210 212 215 219 222 225 226 227 227 229 233 238 244 250 256 262 268 273 276 279 282 283 285 287 289 291 293 295 297 300 302 304 307 309 310 312 313 315 316 317 318 319 320 321 322 322 323 323 323 324 323 323 322 321 320 319 318 317 316 316 315 315 315
207 209 210 210 209 210 210 212 216 220 224 225 225 226 227 230 235 240 246 253 260 266 271 275 278 280 282 284 286 289 291 293 294 296 298 300 303 305 307 309 311 313 314 315 316 317 318 320 321 322 323 323 324 324 324 323 323 322 321 320 319 318 317 317 316 316 316 316 316
210 211 211 210 209 209 211 214 218 221 223 224 224 225 227 231 236 242 249 256 263 268 273 276 279 281 283 285 288 291 293 294 296 297 299 301 303 306 308 309 311 313 314 316 317 318 320 321 322 323 324 324 324 324 324 323 322 321 320 319 318 317 317 317 317 317 317 316 316
210 211 211 210 209 210 212 215 219 221 222 222 223 225 229 233 239 246 253 260 266 270 274 277 279 282 285 288 291 293 295 296 297 298 300 302 304 306 308 310 311 313 315 316 318 319 321 322 323 324 324 324 324 323 323 322 321 320 319 318 317 317 317 317 317 317 317 317 316
210 210 209 209 210 212 214 217 219 220 220 221 223 226 231 236 243 250 257 263 268 272 275 277 280 283 287 291 293 295 296 296 297 299 300 302 304 306 308 310 312 313 315 317 319 321 322 323 324 324 324 323 323 322 321 320 319 318 317 317 317 317 317 317 317 317 317 317 317
209 208 209 209 211 213 216 218 219 219 219 220 224 229 235 241 247 254 260 264 269 273 276 278 281 285 289 292 295 296 296 296 297 299 301 303 305 307 309 310 312 314 316 319 321 322 323 324 324 323 323 322 321 320 320 319 318 317 317 317 317 317 317 317 317 318 318 317 317
207 208 209 210 212 214 216 217 217 217 219 222 227 233 239 245 251 256 262 266 269 273 276 279 283 287 290 293 294 295 296 297 298 300 302 303 305 307 309 311 313 316 318 320 322 324 324 324 323 323 322 321 320 319 318 317 317 317 317 317 317 317 317 317 318 318 318 318 317
207 209 210 211 212 213 214 215 215 217 221 225 231 237 243 248 253 258 263 267 270 274 277 281 285 288 291 293 294 295 296 297 299 301 303 305 307 309 311 313 315 317 320 322 324 324 325 324 323 322 320 319 318 317 317 317 317 317 318 317 317 317 317 317 318 318 318 318 318
209 210 210 210 211 212 212 214 216 219 224 229 235 241 246 250 255 260 265 268 272 276 279 283 286 289 291 293 294 295 297 298 299 301 303 306 308 310 312 314 317 319 321 323 324 325 324 323 322 321 319 318 317 317 317 317 318 318 317 317 317 316 317 317 318 319 319 319 318
209 209 209 210 210 211 212 214 217 222 227 233 238 243 248 252 257 262 266 270 274 278 282 285 287 289 291 293 294 295 297 298 300 302 305 307 309 311 314 316 318 321 323 324 324 324 324 322 321 320 319 318 317 317 317 318 318 317 317 316 316 316 317 317 318 319 319 319 318
208 208 208 209 210 211 214 217 220 225 230 235 240 245 250 254 259 263 267 272 276 280 283 285 287 289 291 293 294 295 297 299 302 304 306 309 311 313 315 317 320 321 323 324 324 324 323 322 321 320 319 318 318 317 318 317 317 317 316 316 316 316 317 318 319 320 320 319 318
206 207 207 209 211 213 216 220 224 228 233 237 242 247 251 256 261 265 270 274 277 280 282 284 287 289 291 293 294 296 298 300 303 306 308 310 312 314 316 318 321 322 324 324 324 324 323 322 321 320 319 318 318 317 317 317 316 316 316 315 315 316 316 318 319 320 321 320 318
205 206 208 210 213 216 219 223 227 231 235 240 244 249 254 259 263 268 272 275 277 279 282 285 288 290 292 294 296 297 299 302 304 306 309 311 313 315 317 319 321 322 323 324 324 324 323 322 321 320 319 318 317 317 316 316 315 315 315 315 315 316 316 318 320 321 321 321 319
205 207 210 212 215 218 222 225 229 233 237 242 246 252 257 261 265 269 273 275 277 279 282 286 289 292 294 296 298 300 301 303 305 307 309 311 313 316 318 320 321 322 323 324 324 324 323 322 321 319 318 317 316 316 315 315 315 314 314 314 315 316 317 318 320 322 322 322 320
206 209 211 214 217 221 224 227 231 235 239 244 249 254 259 263 267 270 273 274 277 281 284 288 291 293 296 298 299 301 303 305 307 308 310 312 314 316 318 320 321 322 323 324 324 323 323 321 320 319 317 316 315 315 315 314 314 314 314 314 314 315 317 319 321 323 324 323 322
207 210 212 216 219 222 225 229 233 237 241 246 251 256 261 264 268 270 273 275 279 283 287 291 293 295 297 299 301 303 305 307 309 310 312 314 316 318 320 321 322 322 323 323 323 323 322 321 319 318 317 316 315 315 314 314 313 313 313 313 314 315 317 320 322 324 325 325 324
208 211 214 218 220 223 227 231 234 237 242 247 253 258 263 266 269 271 274 278 283 287 291 293 294 297 299 300 302 304 306 308 310 312 314 316 318 319 321 322 322 323 323 323 323 322 321 320 319 318 317 316 315 314 314 313 313 312 312 313 314 315 318 321 323 325 326 326 326
210 213 216 219 221 225 228 231 234 238 244 249 256 261 265 268 271 275 279 283 288 290 292 293 296 298 300 301 303 306 308 310 311 313 315 317 319 320 322 322 323 323 323 323 322 322 320 319 318 317 317 316 315 314 313 312 312 312 312 312 313 315 319 322 325 326 327 327 328
210 213 216 219 222 225 227 230 234 239 245 252 259 264 269 272 276 279 283 287 289 291 292 294 297 299 301 302 305 307 309 311 312 314 316 318 320 321 322 323 323 323 323 322 322 321 320 319 318 318 317 317 316 314 312 311 311 311 311 312 314 316 320 323 326 327 328 328 329
210 213 215 218 221 224 227 231 235 241 248 257 263 269 273 276 279 282 286 288 290 292 294 296 299 300 302 304 306 308 310 311 313 315 317 319 321 322 323 323 323 323 322 322 321 321 320 319 318 318 318 317 316 314 312 311 311 311 311 313 314 317 321 324 327 328 329 330 331
209 211 214 217 219 223 227 232 237 244 253 262 269 275 279 281 284 286 288 289 290 293 296 298 301 302 304 306 307 309 311 313 315 317 319 321 322 323 324 324 323 322 322 322 321 320 320 319 319 319 318 318 316 314 312 311 311 311 312 313 315 318 322 326 328 330 331 332 332
208 210 212 215 219 223 228 234 241 250 260 269 276 280 283 286 288 288 289 290 292 295 298 300 303 304 306 308 309 311 313 315 317 319 321 322 323 324 324 324 323 322 322 321 321 320 320 319 319 319 319 318 316 314 313 312 312 313 313 314 316 320 323 327 329 332 333 334 333
206 208 211 215 219 225 231 237 246 257 267 275 280 283 286 287 287 288 289 292 295 299 301 303 305 307 309 310 312 313 315 317 319 320 322 322 323 324 324 323 323 322 321 321 320 320 320 320 319 319 319 318 316 315 314 314 314 314 315 316 318 321 325 328 331 333 335 335 333
206 208 212 216 221 227 234 243 254 265 274 279 282 285 286 286 286 288 292 296 300 302 304 306 307 309 310 312 313 315 317 319 320 322 323 323 323 323 323 323 322 322 321 321 320 320 320 320 320 320 319 318 317 316 316 315 315 315 316 317 319 323 327 330 333 335 336 335 333
205 209 213 218 223 230 240 251 263 273 278 281 283 283 284 286 289 292 296 300 303 304 305 306 308 309 311 313 315 318 319 321 322 323 323 323 323 323 323 323 322 322 321 321 321 320 320 320 321 321 320 319 319 318 318 317 317 317 317 318 321 325 329 331 333 334 334 334 331
207 211 216 221 228 236 247 259 270 276 280 281 282 284 286 290 294 297 300 303 304 305 306 307 308 310 313 315 318 321 322 323 324 324 324 324 323 323 323 323 322 322 321 321 321 321 321 321 322 322 322 321 320 320 319 319 318 318 318 320 323 326 329 331 332 332 332 331 328
208 213 219 225 233 242 255 266 275 279 280 281 283 287 291 295 298 301 302 304 305 306 307 309 311 313 315 318 321 323 324 324 324 324 324 324 323 323 323 323 322 322 322 321 321 321 321 322 323 323 324 323 322 322 321 320 319 319 320 321 324 327 329 331 331 330 328 326 323
210 215 221 229 239 253 264 273 278 280 281 283 287 291 295 299 301 303 304 305 307 308 310 312 315 317 319 321 322 323 324 324 324 324 324 324 324 323 323 323 322 322 322 321 321 321 322 323 324 325 325 325 324 323 322 321 320 320 321 323 326 328 329 330 329 327 323 320 319
211 217 225 236 249 261 270 277 279 280 283 287 292 296 299 302 304 305 306 308 309 311 313 316 318 320 321 322 323 323 323 323 323 324 324 324 323 323 323 322 322 321 321 321 321 322 323 324 325 326 327 327 326 324 323 321 320 321 322 326 328 329 329 328 325 322 319 317 317
211 220 233 246 258 268 275 278 280 283 288 293 296 299 302 304 305 306 308 310 312 314 316 318 320 322 322 323 323 323 323 323 324 324 324 324 324 323 323 322 321 321 321 321 322 322 323 325 327 328 329 328 326 324 323 322 321 322 324 327 329 329 327 324 321 318 316 315 316
Height
1474 1475 1477 1478 1480 1481 1483 1485 1487 1489 1490 1491 1491 1492 1492 1493 1493 1494 1494 1494 1495 1495 1495 1495 1495 1495 1495 1494 1494 1494 1494 1493 1493 1492 1492 1491 1491 1491 1490 1489 1489 1488 1488 1487 1487 1487 1486 1486 1485 1485 1484 1483 1482 1481 1481 1480 1479 1478 1477 1476 1475 1475 1474 1473 1472 1471 1470 1469 1468
1474 1475 1477 1478 1480 1482 1484 1485 1487 1488 1489 1490 1491 1491 1492 1492 1493 1493 1493 1494 1494 1494 1494 1494 1494 1494 1494 1494 1493 1493 1493 1492 1492 1492 1491 1491 1490 1490 1489 1488 1488 1487 1487 1487 1486 1486 1486 1485 1484 1484 1483 1482 1481 1481 1480 1479 1478 1477 1476 1476 1475 1474 1473 1472 1471 1470 1469 1468 1467
1473 1475 1476 1478 1480 1482 1484 1485 1486 1488 1489 1490 1490 1491 1491 1492 1492 1492 1493 1493 1493 1493 1493 1493 1493 1493 1493 1493 1493 1492 1492 1492 1491 1491 1490 1490 1489 1489 1488 1487 1487 1487 1486 1486 1486 1485 1485 1484 1483 1483 1482 1481 1481 1480 1479 1478 1477 1476 1476 1474 1474 1473 1471 1471 1470 1469 1468 1467 1466
1473 1475 1476 1478 1480 1482 1484 1485 1486 1487 1488 1489 1489 1490 1491 1491 1491 1492 1492 1492 1492 1493 1493 1493 1493 1492 1492 1492 1492 1492 1491 1491 1491 1490 1489 1489 1488 1488 1487 1487 1486 1486 1486 1485 1485 1484 1484 1483 1482 1482 1481 1480 1480 1479 1478 1477 1476 1476 1475 1473 1472 1471 1471 1470 1468 1467 1466 1465 1464
1473 1475 1477 1479 1481 1482 1484 1485 1486 1487 1488 1488 1489 1489 1490 1490 1491 1491 1491 1491 1492 1492 1492 1492 1492 1492 1492 1491 1491 1491 1491 1490 1490 1489 1488 1488 1487 1487 1486 1486 1486 1485 1485 1484 1484 1483 1483 1482 1481 1481 1480 1479 1478 1478 1477 1476 1475 1475 1474 1472 1471 1471 1469 1468 1467 1466 1465 1464 1463
1473 1476 1477 1479 1481 1482 1484 1485 1486 1486 1487 1488 1488 1489 1489 1490 1490 1490 1491 1491 1491 1491 1491 1491 1491 1491 1491 1491 1491 1490 1490 1489 1489 1488 1488 1487 1486 1486 1486 1485 1485 1484 1484 1483 1483 1482 1482 1481 1481 1480 1479 1478 1477 1476 1476 1475 1474 1473 1472 1471 1471 1469 1468 1467 1466 1465 1464 1462 1461
1474 1476 1477 1479 1481 1482 1484 1485 1486 1486 1486 1487 1488 1488 1489 1489 1489 1490 1490 1490 1490 1490 1490 1490 1490 1490 1490 1490 1490 1489 1489 1488 1488 1487 1487 1486 1486 1485 1485 1484 1484 1483 1483 1483 1482 1481 1481 1480 1480 1479 1478 1477 1476 1476 1475 1474 1473 1472 1471 1471 1469 1468 1467 1466 1464 1463 1462 1461 1460
1474 1476 1478 1479 1481 1482 1483 1484 1485 1486 1486 1486 1487 1488 1488 1488 1489 1489 1489 1489 1489 1490 1490 1490 1490 1490 1489 1489 1489 1488 1488 1487 1487 1486 1486 1486 1485 1485 1484 1484 1483 1483 1482 1482 1481 1481 1480 1479 1479 1478 1477 1476 1475 1475 1474 1473 1472 1471 1470 1469 1468 1467 1466 1465 1463 1462 1461 1460 1458
1474 1476 1478 1479 1481 1482 1483 1484 1484 1485 1486 1486 1486 1487 1487 1488 1488 1488 1488 1488 1489 1489 1489 1489 1489 1489 1488 1488 1488 1487 1487 1486 1486 1485 1485 1485 1484 1484 1483 1483 1482 1482 1481 1481 1480 1480 1479 1478 1477 1476 1476 1475 1474 1473 1472 1471 1471 1470 1469 1468 1467 1466 1465 1463 1462 1461 1459 1458 1457
1474 1476 1477 1479 1480 1481 1482 1483 1484 1484 1485 1485 1486 1486 1486 1487 1487 1487 1487 1488 1488 1488 1488 1488 1488 1488 1487 1487 1487 1486 1486 1486 1485 1485 1484 1484 1483 1483 1483 1482 1482 1481 1481 1480 1479 1479 1478 1477 1476 1476 1475 1474 1473 1472 1471 1470 1469 1468 1467 1466 1465 1464 1463 1462 1461 1459 1458 1456 1455
1474 1476 1477 1478 1479 1480 1481 1482 1483 1483 1484 1485 1485 1486 1486 1486 1486 1486 1487 1487 1487 1487 1487 1487 1487 1487 1486 1486 1486 1486 1485 1485 1484 1484 1483 1483 1482 1482 1482 1481 1481 1480 1480 1479 1478 1477 1477 1476 1475 1475 1474 1473 1472 1471 1470 1469 1468 1467 1466 1465 1464 1463 1461 1460 1459 1458 1456 1455 1454
1474 1476 1476 1478 1479 1480 1480 1481 1482 1483 1483 1484 1484 1485 1485 1486 1486 1486 1486 1486 1486 1486 1486 1486 1486 1486 1486 1485 1485 1485 1484 1484 1483 1483 1482 1482 1482 1481 1481 1480 1480 1479 1478 1478 1477 1476 1476 1475 1474 1473 1472 1471 1471 1470 1469 1467 1466 1466 1465 1463 1462 1461 1460 1459 1457 1456 1455 1453 1452
1474 1475 1476 1477 1478 1479 1480 1481 1481 1482 1483 1483 1484 1484 1484 1485 1485 1485 1485 1485 1485 1485 1485 1485 1485 1485 1485 1484 1484 1484 1483 1483 1482 1482 1482 1481 1481 1480 1480 1479 1479 1478 1477 1476 1476 1475 1474 1473 1473 1472 1471 1470 1469 1468 1467 1466 1465 1464 1463 1462 1461 1460 1458 1457 1456 1454 1453 1451 1450
1473 1474 1475 1476 1477 1478 1479 1480 1481 1481 1482 1483 1483 1483 1484 1484 1484 1484 1485 1485 1485 1484 1484 1484 1484 1484 1484 1483 1483 1483 1482 1482 1482 1481 1481 1480 1480 1480 1479 1478 1478 1477 1476 1476 1475 1474 1473 1472 1471 1471 1470 1469 1468 1467 1466 1465 1464 1463 1461 1460 1459 1458 1456 1455 1454 1452 1451 1450 1448
1473 1474 1475 1476 1477 1478 1479 1480 1481 1481 1481 1482 1482 1483 1483 1483 1484 1484 1484 1484 1484 1483 1483 1483 1483 1483 1483 1482 1482 1482 1481 1481 1481 1481 1480 1480 1479 1478 1478 1477 1477 1476 1475 1475 1474 1473 1472 1471 1470 1469 1468 1467 1466 1466 1465 1464 1463 1461 1460 1459 1457 1456 1455 1453 1452 1451 1449 1448 1446
1472 1473 1475 1476 1476 1477 1478 1479 1480 1481 1481 1481 1482 1482 1482 1483 1483 1483 1483 1483 1482 1482 1482 1482 1482 1482 1482 1481 1481 1481 1481 1480 1480 1480 1479 1479 1478 1477 1477 1476 1476 1475 1474 1473 1473 1472 1471 1470 1469 1468 1467 1466 1465 1464 1463 1462 1461 1460 1459 1457 1456 1454 1453 1451 1450 1449 1447 1446 1444
1472 1473 1474 1475 1476 1477 1478 1479 1479 1480 1480 1481 1481 1481 1482 1482 1482 1482 1482 1482 1481 1481 1481 1481 1481 1481 1481 1481 1480 1480 1480 1479 1479 1479 1478 1478 1477 1476 1476 1475 1474 1474 1473 1472 1471 1471 1470 1469 1467 1466 1466 1465 1464 1463 1462 1461 1460 1459 1457 1456 1454 1453 1451 1450 1448 1447 1446 1444 1442
1472 1473 1474 1475 1476 1477 1477 1478 1479 1479 1480 1480 1481 1481 1481 1481 1481 1481 1481 1481 1481 1481 1481 1480 1480 1480 1480 1480 1479 1479 1479 1478 1478 1477 1477 1476 1476 1475 1475 1474 1473 1473 1472 1471 1470 1469 1468 1467 1466 1465 1464 1463 1462 1461 1461 1459 1458 1457 1456 1454 1453 1451 1450 1448 1447 1445 1444 1442 1441
1471 1473 1474 1475 1476 1476 1477 1477 1478 1478 1479 1479 1480 1480 1480 1480 1480 1480 1480 1480 1480 1480 1480 1479 1479 1479 1479 1479 1478 1478 1478 1478 1477 1476 1476 1475 1475 1474 1473 1473 1472 1471 1471 1470 1469 1468 1467 1466 1465 1464 1463 1462 1461 1460 1459 1458 1456 1455 1454 1452 1451 1449 1448 1446 1445 1444 1442 1441 1439
1471 1472 1473 1474 1475 1476 1476 1477 1477 1478 1478 1479 1479 1479 1479 1479 1479 1479 1479 1479 1479 1479 1479 1479 1478 1478 1478 1478 1477 1477 1477 1477 1476 1476 1475 1474 1473 1473 1472 1472 1471 1470 1470 1469 1468 1467 1466 1465 1464 1463 1461 1461 1459 1458 1457 1456 1455 1453 1452 1451 1449 1447 1446 1445 1443 1442 1441 1439 1437
1471 1472 1473 1474 1474 1475 1476 1476 1476 1477 1477 1478 1478 1478 1478 1478 1478 1478 1478 1478 1478 1478 1478 1478 1477 1477 1477 1477 1477 1476 1476 1476 1475 1474 1474 1473 1472 1472 1471 1471 1470 1469 1469 1468 1467 1466 1465 1464 1462 1461 1460 1459 1457 1456 1455 1454 1452 1451 1450 1448 1447 1446 1444 1443 1441 1440 1439 1437 1436
1471 1471 1472 1473 1474 1474 1475 1476 1476 1476 1476 1477 1477 1477 1477 1477 1477 1477 1477 1477 1477 1477 1477 1477 1477 1476 1476 1476 1476 1476 1475 1475 1474 1473 1473 1472 1471 1471 1470 1469 1469 1468 1467 1466 1466 1465 1463 1462 1461 1460 1458 1457 1455 1454 1453 1452 1451 1449 1448 1446 1445 1444 1442 1441 1440 1438 1437 1436 1434
1470 1471 1472 1472 1473 1474 1474 1475 1475 1476 1476 1476 1476 1476 1476 1476 1476 1476 1476 1476 1476 1476 1476 1476 1476 1476 1476 1476 1475 1475 1474 1474 1473 1472 1471 1471 1470 1470 1469 1468 1468 1467 1466 1465 1464 1463 1462 1461 1459 1458 1456 1455 1453 1452 1451 1450 1448 1447 1446 1444 1443 1441 1440 1439 1438 1436 1435 1434 1432
1469 1470 1471 1472 1472 1473 1473 1474 1474 1475 1475 1475 1475 1475 1476 1476 1476 1476 1476 1476 1476 1476 1476 1475 1475 1475 1475 1475 1474 1474 1473 1473 1472 1471 1471 1470 1469 1469 1468 1467 1466 1466 1465 1464 1463 1462 1460 1459 1457 1456 1455 1453 1452 1450 1449 1448 1446 1445 1443 1442 1441 1439 1438 1437 1436 1435 1433 1431 1430
1469 1470 1470 1471 1471 1472 1472 1473 1473 1474 1474 1474 1474 1475 1475 1475 1475 1475 1475 1475 1475 1475 1475 1475 1474 1474 1474 1474 1473 1473 1472 1472 1471 1471 1470 1469 1469 1468 1467 1466 1465 1464 1464 1463 1461 1461 1459 1458 1456 1455 1453 1451 1450 1449 1447 1446 1445 1443 1442 1440 1439 1437 1436 1435 1434 1433 1431 1430 1428
1468 1469 1470 1470 1471 1471 1472 1472 1472 1473 1473 1473 1473 1474 1474 1474 1474 1474 1474 1474 1474 1474 1474 1474 1474 1473 1473 1473 1472 1471 1471 1471 1470 1470 1469 1468 1467 1467 1466 1465 1464 1463 1462 1461 1460 1459 1458 1456 1455 1453 1452 1450 1448 1447 1446 1444 1443 1441 1440 1438 1437 1436 1434 1433 1431 1430 1429 1428 1426
1467 1468 1469 1469 1470 1470 1471 1471 1471 1472 1472 1472 1473 1473 1473 1473 1473 1473 1474 1474 1474 1473 1473 1473 1473 1472 1472 1472 1471 1471 1470 1469 1469 1468 1468 1467 1466 1466 1465 1464 1463 1462 1461 1460 1459 1457 1456 1455 1454 1452 1451 1449 1447 1446 1444 1442 1441 1440 1438 1437 1435 1434 1432 1431 1430 1428 1427 1426 1424
1466 1467 1468 1468 1469 1469 1470 1470 1471 1471 1471 1472 1472 1472 1472 1473 1473 1473 1473 1473 1473 1473 1472 1472 1472 1472 1471 1471 1470 1470 1469 1468 1467 1467 1466 1466 1465 1464 1463 1462 1461 1460 1459 1458 1457 1456 1455 1453 1452 1451 1449 1447 1446 1444 1442 1441 1439 1438 1437 1435 1434 1432 1431 1430 1428 1426 1425 1424 1422
1466 1466 1467 1468 1468 1468 1469 1469 1470 1470 1471 1471 1471 1472 1472 1472 1472 1472 1472 1472 1472 1472 1472 1471 1471 1471 1471 1470 1469 1469 1468 1467 1466 1466 1465 1465 1464 1463 1462 1461 1460 1459 1458 1457 1456 1454 1453 1451 1450 1449 1447 1446 1444 1442 1441 1439 1438 1436 1435 1434 1432 1431 1429 1428 1426 1425 1423 1422 1421
1465 1466 1466 1467 1467 1468 1468 1469 1469 1470 1470 1471 1471 1471 1471 1471 1471 1471 1472 1472 1471 1471 1471 1471 1471 1470 1470 1469 1468 1467 1467 1466 1465 1465 1464 1463 1463 1462 1461 1460 1458 1457 1456 1455 1454 1452 1451 1450 1448 1447 1445 1444 1442 1441 1439 1437 1436 1435 1433 1432 1431 1429 1428 1426 1425 1424 1422 1421 1419
1464 1465 1466 1466 1466 1467 1468 1468 1469 1469 1470 1470 1470 1471 1471 1471 1471 1471 1471 1471 1471 1471 1470 1470 1470 1469 1469 1468 1467 1466 1466 1465 1464 1463 1463 1462 1461 1460 1459 1458 1457 1456 1454 1453 1452 1451 1449 1448 1446 1445 1443 1442 1441 1439 1437 1436 1434 1433 1431 1430 1429 1427 1426 1425 1424 1422 1421 1419 1418
1464 1464 1465 1465 1466 1466 1467 1468 1468 1469 1469 1469 1470 1470 1470 1470 1470 1470 1470 1470 1470 1470 1470 1469 1469 1468 1468 1467 1466 1466 1465 1464 1463 1462 1461 1461 1460 1459 1457 1456 1455 1454 1453 1451 1450 1449 1447 1446 1444 1443 1442 1440 1439 1437 1436 1434 1433 1431 1430 1429 1427 1426 1425 1423 1422 1421 1419 1418 1417
1463 1464 1464 1465 1466 1466 1467 1467 1468 1468 1468 1469 1469 1469 1469 1469 1469 1470 1470 1469 1469 1469 1469 1468 1468 1467 1466 1466 1465 1465 1464 1463 1462 1461 1460 1459 1458 1457 1456 1455 1453 1452 1451 1450 1448 1447 1446 1444 1442 1441 1440 1439 1437 1436 1434 1432 1431 1430 1428 1427 1426 1425 1423 1422 1421 1419 1418 1416 1415
1463 1463 1464 1465 1465 1466 1466 1467 1467 1467 1468 1468 1468 1468 1468 1469 1469 1469 1469 1469 1468 1468 1467 1467 1466 1466 1465 1465 1464 1463 1463 1462 1461 1460 1459 1458 1456 1456 1455 1453 1452 1451 1449 1448 1446 1445 1444 1442 1441 1439 1438 1437 1435 1433 1432 1431 1429 1428 1426 1425 1424 1423 1422 1421 1419 1418 1416 1415 1414
1462 1463 1464 1464 1465 1465 1466 1466 1466 1467 1467 1467 1467 1468 1468 1468 1468 1468 1468 1468 1467 1467 1466 1466 1466 1465 1464 1464 1463 1462 1461 1461 1460 1458 1457 1456 1455 1454 1453 1452 1451 1449 1448 1446 1445 1443 1442 1440 1439 1438 1436 1435 1433 1431 1430 1429 1427 1426 1425 1423 1422 1421 1420 1419 1418 1416 1415 1414 1412
1462 1463 1463 1464 1464 1465 1465 1465 1466 1466 1466 1466 1467 1467 1467 1467 1467 1467 1467 1467 1466 1466 1466 1465 1465 1464 1463 1463 1462 1461 1460 1459 1458 1457 1456 1455 1454 1452 1451 1450 1449 1447 1446 1444 1443 1441 1440 1439 1437 1436 1434 1433 1431 1430 1428 1427 1426 1424 1423 1422 1421 1419 1418 1417 1416 1415 1413 1412 1411
1462 1462 1463 1463 1464 1464 1464 1465 1465 1466 1466 1466 1466 1467 1467 1467 1466 1466 1466 1466 1466 1465 1465 1464 1464 1463 1462 1462 1461 1460 1458 1457 1456 1455 1454 1453 1452 1451 1449 1448 1447 1446 1444 1442 1441 1440 1438 1437 1436 1434 1433 1431 1429 1428 1426 1425 1424 1422 1421 1420 1419 1418 1416 1415 1414 1413 1412 1411 1410
1461 1462 1462 1463 1463 1464 1464 1464 1465 1465 1466 1466 1466 1466 1466 1466 1466 1466 1465 1465 1465 1464 1464 1463 1462 1462 1461 1461 1460 1459 1457 1456 1455 1454 1453 1451 1450 1449 1447 1446 1445 1444 1442 1441 1439 1438 1437 1435 1434 1433 1431 1429 1428 1426 1425 1423 1422 1421 1420 1419 1417 1416 1415 1414 1412 1411 1410 1410 1409
1461 1461 1462 1462 1463 1463 1463 1464 1464 1465 1465 1465 1465 1465 1465 1465 1465 1465 1464 1464 1464 1463 1463 1462 1461 1461 1460 1459 1458 1457 1456 1455 1454 1453 1451 1450 1449 1447 1446 1444 1443 1442 1441 1439 1438 1436 1435 1434 1432 1431 1430 1428 1426 1425 1423 1422 1421 1420 1418 1417 1416 1414 1413 1412 1411 1410 1409 1408 1407
1461 1461 1461 1462 1462 1463 1463 1463 1464 1464 1465 1465 1465 1465 1464 1464 1464 1464 1463 1463 1463 1462 1462 1461 1460 1459 1458 1458 1457 1456 1456 1454 1453 1452 1450 1449 1447 1446 1445 1443 1441 1440 1439 1438 1436 1435 1433 1432 1431 1430 1428 1427 1425 1424 1422 1421 1420 1418 1417 1416 1415 1413 1412 1411 1410 1409 1408 1406 1405
1460 1461 1461 1461 1462 1462 1463 1463 1463 1464 1464 1464 1464 1464 1464 1463 1463 1463 1462 1462 1461 1461 1461 1460 1459 1458 1457 1456 1456 1455 1454 1453 1452 1451 1449 1448 1446 1445 1443 1442 1440 1439 1437 1436 1435 1433 1432 1431 1429 1428 1427 1426 1424 1423 1421 1420 1419 1417 1416 1415 1413 1412 1411 1410 1409 1407 1406 1405 1403